Regional Weather Roundup
Issued by NWS

Home | Current Version | Previous Version | Graphics & Text | Print | Product List | Glossary On
Versions: 1 2 3 4 5 6 7 8 9 10 11 12 13 14 15 16 17 18 19 20 21 22 23 24 25 26 27
000
ASUS45 KBOU 220707
RWRCO

WEATHER ROUNDUP FOR COLORADO
NATIONAL WEATHER SERVICE DENVER/BOULDER CO
100 AM MDT TUE AUG 22 2017

NOTE: "FAIR" INDICATES FEW OR NO CLOUDS BELOW 12000 FEET WITH NO
SIGNIFICANT WEATHER AND/OR OBSTRUCTIONS TO VISIBILITY.

COZ001>005-013-030-031-220800-
...NORTHWEST COLORADO...

CITY           SKY/WX    TMP DP  RH WIND       PRES   REMARKS
CRAIG          FAIR      46  36  68 CALM      30.28R
HAYDEN         FAIR      60  35  39 E10       30.32R
MEEKER         FAIR      57  37  47 E7        30.30R
RABBIT EARS PA FAIR      50  37  62 SE7       30.60S
STEAMBOAT SPGS FAIR      54  37  53 CALM      30.34R
WALDEN         FAIR      50  36  57 SE5       30.45R
$$

COZ006>008-011-220800-
...WEST CENTRAL VALLEYS...

CITY           SKY/WX    TMP DP  RH WIND       PRES   REMARKS
GRAND JUNCTION FAIR      76  44  32 SE16      30.18R
MONTROSE       FAIR      64  46  52 NE3       30.29R
EAGLE          FAIR      58  39  49 CALM      30.37R
RIFLE          FAIR      65  40  39 W6        30.25R
DELTA          FAIR      71  43  35 NE7       30.25S
NUCLA          FAIR      68  41  37 CALM      30.32S
$$

COZ017>023-064>068-220800-
...SOUTHWEST COLORADO...

CITY           SKY/WX    TMP DP  RH WIND       PRES   REMARKS
DURANGO        FAIR      61  48  62 CALM      30.37F
CORTEZ         MOCLDY    65  53  65 N6        30.29S
PAGOSA SPRINGS FAIR      55  44  67 CALM      30.44S
TELLURIDE      FAIR      59  38  46 CALM      30.52R
WOLF CREEK PAS CLOUDY    41  37  87 N9        30.75S
$$

COZ009-010-012-014-032>034-037-058>063-220800-
...CENTRAL COLORADO...

CITY           SKY/WX    TMP DP  RH WIND       PRES   REMARKS
ASPEN          FAIR      61  40  45 SE8       30.42R
BUENA VISTA    FAIR      50  45  81 NW6       30.49S
COPPER MTN     FAIR      50  34  53 S9        30.73S
BERTHOUD PASS  FAIR      41  36  81 SE10      30.76F
COTTONWOOD PAS FAIR      55  36  47 W3        30.60S
GUNNISON       FAIR      51  44  77 CALM      30.47R
KREMMLING      FAIR      54  41  62 CALM      30.42S
LEADVILLE      FAIR      41  36  82 NE6       30.60R
MONARCH PASS   FAIR      45  36  70 E12       30.82S
SALIDA         FAIR      54  48  80 W5        30.54S
SUNLIGHT       FAIR      52  32  46 S6        30.65S
WILKERSON PASS FAIR      48  34  57 CALM      30.71F
$$

COZ069>075-220800-
...SAN LUIS VALLEY/SANGRE DE CRISTO MOUNTAINS...

CITY           SKY/WX    TMP DP  RH WIND       PRES   REMARKS
ALAMOSA        FAIR      53  47  79 VRB5      30.43S
DEL NORTE      FAIR      52  48  84 W7        30.47S
LA VETA PASS   NOT AVBL
SAGUACHE         N/A     54  50  87 NW12      30.46S
$$

COZ035-036-038>040-220800-
...NORTHERN COLORADO FRONT RANGE...

CITY           SKY/WX    TMP DP  RH WIND       PRES   REMARKS
DENVER INTL AP FAIR      64  49  57 SE3       30.31R
DMNS CITY PARK   N/A     64  53  68 E2G10     30.30F
AURORA         NOT AVBL
FRONT RANGE AP FAIR      63  52  67 CALM      30.32R
ERIE MUNI ARPT FAIR      59  49  68 CALM      30.34S
BOULDER MUN AP FAIR      66  48  52 CALM      30.30S
CENTENNIAL     FAIR      64  51  62 CALM      30.33S
BROOMFIELD     FAIR      64  50  59 NW3       30.32F
FORT COLLINS   FAIR      66  47  50 SE5       30.30S
LONGMONT       MOCLDY    64  53  68 CALM      30.31S
$$

COZ041-046-047-076>085-087-088-220800-
...PIKES PEAK/PALMER DIVIDE AND SOUTHERN FOOTHILLS...

CITY           SKY/WX    TMP DP  RH WIND       PRES   REMARKS
COLO. SPRINGS  FAIR      64  52  64 NE6       30.36R
A. F. ACADEMY  FAIR      56  46  70 N10       30.37R
SCHRIEVER AFB  FAIR      62  51  68 NW7       30.36R
CHEYENNE MTN   NOT AVBL
ELLICOTT       FAIR     N/A N/A N/A E10       30.33R
FALCON         FAIR      60  51  70 N6        30.41R
FORT CARSON    FAIR      64  51  63 CALM      30.32R
LIMON          FAIR      59  58  96 E6        30.30R
MONUMENT HILL  FAIR      52  48  87 SE6       30.42S
CANON CITY     CLEAR     66  54  63 W10       30.29S
WALSENBURG     FAIR      63  54  72 W7        30.33F
TRINIDAD       FAIR      65  49  56 W10       30.30S
$$

COZ042>045-048>051-090-091-220800-
...NORTHEAST COLORADO...

CITY           SKY/WX    TMP DP  RH WIND       PRES   REMARKS
GREELEY ARPT   FAIR      55  51  86 N7        30.28S
AKRON          FAIR      59  56  89 E7        30.26R
BURLINGTON     CLOUDY    69  64  84 NE14      30.21R
WRAY           NOT AVBL
YUMA           FAIR      59  48  67 N6        30.24R
STERLING       FAIR      57  52  82 NE3       30.23R
HOLYOKE        MOCLDY    63  61  94 NE7       30.23R
FORT MORGAN    FAIR      58  51  75 NE5       30.26R
$$

COZ086-089-092>099-220800-
...SOUTHEAST COLORADO...

CITY           SKY/WX    TMP DP  RH WIND       PRES   REMARKS
PUEBLO         FAIR      67  52  58 NW3       30.24R
LA JUNTA       FAIR      69  53  56 W12       30.20R
LAMAR          FAIR      69  64  84 CALM      30.12R
SPRINGFIELD      N/A     65  64  97 W5        30.15R
$$




USA.gov is the U.S. government's official web portal to all federal, state and local government web resources and services.